Location: Beuerbach
(48.1459°N, 10.9174°E)
Time: 03:24:50
(UTC+00:00)

Cosmos 2360 Rocket - Pass Details

Date: 23 May 2024
Orbit: 832 x 846 km, 71.0° (Epoch: 13 June)

Event Time Altitude Azimuth Distance (km) Brightness Sun altitude
Rises 00:13:56 0° 336° (NNW) 3,416 6.2 -19.9°
Reaches altitude 10° 00:16:46 10° 348° (NNW) 2,478 5.5 -19.8°
Maximum altitude 00:21:37 28° 47° (NE) 1,542 4.2 -19.5°
Drops below altitude 10° 00:26:27 10° 105° (ESE) 2,468 4.7 -19.3°
Sets 00:29:14 0° 117° (ESE) 3,399 5.3 -19.1°
